Home > Time Zones > World Clock > Weather > Sweden > Lund > Past weeks

Flag for Sweden Weather past 2 weeks in Lund, Sweden

Now
63 °F

Sunny.


Feels Like: 63 °F
Forecast: 46 / 62 °F
Wind: 20 mph from East

Location: Malmo / Sturup


UV Index: 3 (Moderate)

Visibility: 10 mi


Pressure: 30.04 "Hg

Humidity: 45%

Dew point: 41 °F

Location of LundLocation

Historic Weather in Lund

°F

Lund temperature yesterday

Maximum temperature yesterday: 61 °F (at 12:50 PM)
Minimum temperature yesterday: 37 °F (at 6:20 AM)
Average temperature yesterday: 51 °F

Past Weeks' High & Low Weather Summary

 TemperatureHumidityPressure
High63 °F (Apr 20, 12:50 PM)100% (Apr 5, 8:20 PM)30.42 "Hg (Apr 5, 8:20 PM)
Low28 °F (Apr 16, 3:50 AM)33% (Apr 16, 1:20 PM)29.47 "Hg (Apr 14, 8:20 AM)
Average46 °F82%29.95 "Hg
* Reported Apr 5 4:20 PM — Apr 20 4:20 PM, Lund, Weather by CustomWeather, © 2014

Note: Actual official high and low records may vary slightly from our data, if they occured in-between our weather recording intervals... More about our weather records

Advertising

Historic Weather Conditions — Data for Previous 24 hours

 ConditionsComfort  
Time TempWeatherWind HumidityBarometerVisibility
4:20 PM
Apr 20
63 °FSunny.22 mph49%30.04 "Hg10 mi
3:50 PM63 °FSunny.21 mph49%30.07 "Hg10 mi
3:20 PM63 °FSunny.18 mph49%30.07 "Hg10 mi
2:50 PM63 °FSunny.21 mph49%30.07 "Hg10 mi
2:20 PM63 °FSunny.22 mph49%30.07 "Hg10 mi
1:50 PM61 °FSunny.20 mph52%30.07 "Hg10 mi
1:20 PM63 °FSunny.20 mph52%30.07 "Hg10 mi
12:50 PM63 °FSunny.17 mph49%30.07 "Hg10 mi
12:20 PM61 °FSunny.17 mph52%30.09 "Hg10 mi
11:50 AM61 °FSunny.14 mph52%30.09 "Hg10 mi
11:20 AM59 °FSunny.14 mph55%30.09 "Hg10 mi
10:50 AM59 °FSunny.15 mph55%30.09 "Hg10 mi
10:20 AM59 °FSunny.15 mph59%30.09 "Hg10 mi
9:50 AM57 °FSunny.15 mph59%30.09 "Hg10 mi
9:20 AM55 °FSunny.15 mph63%30.09 "Hg10 mi
8:50 AM54 °FSunny.17 mph63%30.09 "Hg10 mi
8:20 AM54 °FSunny.16 mph63%30.09 "Hg10 mi
7:50 AM52 °FSunny.16 mph62%30.09 "Hg10 mi
7:20 AM52 °FSunny.13 mph62%30.09 "Hg10 mi
6:50 AM52 °FSunny.14 mph58%30.09 "Hg10 mi
6:20 AM52 °FClear.14 mph58%30.09 "Hg10 mi
5:50 AM52 °FClear.15 mph58%30.09 "Hg10 mi
5:20 AM50 °FClear.15 mph62%30.09 "Hg10 mi
4:50 AM48 °FClear.12 mph66%30.12 "Hg10 mi
4:20 AM48 °FClear.13 mph62%30.12 "Hg10 mi
3:50 AM48 °FClear.13 mph62%30.12 "Hg10 mi
3:20 AM48 °FClear.12 mph62%30.12 "Hg10 mi
2:50 AM50 °FClear.14 mph58%30.12 "Hg10 mi
2:20 AM50 °FClear.13 mph58%30.15 "Hg10 mi
1:50 AM50 °FClear.14 mph58%30.15 "Hg10 mi
1:20 AM50 °FClear.13 mph58%30.15 "Hg10 mi
12:50 AM50 °FClear.14 mph58%30.15 "Hg10 mi
12:20 AM50 °FClear.14 mph58%30.15 "Hg10 mi
11:50 PM
Apr 19
50 °FClear.12 mph58%30.15 "Hg10 mi
11:20 PM50 °FClear.12 mph62%30.18 "Hg10 mi
10:50 PM50 °FClear.10 mph62%30.18 "Hg10 mi
10:20 PM52 °FClear.13 mph58%30.18 "Hg10 mi
9:50 PM52 °FClear.10 mph58%30.18 "Hg10 mi
9:20 PM50 °FClear.8 mph62%30.18 "Hg10 mi
8:50 PM52 °FSunny.7 mph58%30.18 "Hg10 mi
8:20 PM54 °FSunny.8 mph58%30.18 "Hg10 mi
7:50 PM55 °FSunny.10 mph55%30.18 "Hg10 mi
7:20 PM57 °FSunny.10 mph55%30.18 "Hg10 mi
6:50 PM59 °FSunny.12 mph51%30.18 "Hg10 mi
6:20 PM59 °FSunny.15 mph51%30.18 "Hg10 mi
5:50 PM61 °FSunny.13 mph48%30.18 "Hg10 mi
5:20 PM61 °FSunny.14 mph45%30.18 "Hg10 mi
Weather by CustomWeather, © 2014

See weather overview